Location: Capelle
(50.3413°N, 1.9974°E)
Time: 00:57:18
(UTC+00:00)

Cosmos 2219 Rocket - Pass Details

Date: 12 January 2026
Orbit: 828 x 844 km, 71.0° (Epoch: 18 February)

Event Time Altitude Azimuth Distance (km) Brightness Sun altitude
Rises 17:00:26 0° 278° (W) 3,401 6.4 -7.4°
Reaches altitude 10° 17:04:16 10° 304° (WNW) 2,466 5.1 -8.0°
Maximum altitude 17:07:04 14° 334° (NNW) 2,208 4.4 -8.4°
Drops below altitude 10° 17:09:52 10° 4° (N) 2,464 4.4 -8.8°
Enters shadow 17:12:52 - 25° (NNE) 3,158 4.7 -9.2°
